Location: Newark
(55.7816°N, 8.2389°E)
Time: 13:46:25
(UTC+00:00)

ISS - Visible Passes

Search period start: 07 December 2019 00:00
Search period end: 17 December 2019 00:00
Orbit: 411 x 421 km, 51.6° (Epoch: 07 December)

Date Brightness Start Highest point End Pass type
(mag) Time Alt. Az. Time Alt. Az. Time Alt. Az.
07 Dec -1.9 16:37:31 10° W 16:40:27 28° SSW 16:43:24 10° SE visible
07 Dec -0.6 18:15:53 10° SW 18:16:25 10° SW 18:16:55 10° SSW visible
08 Dec -2.1 15:49:03 10° W 15:52:07 33° SSW 15:55:11 10° SE visible
08 Dec -0.9 17:26:19 10° WSW 17:28:11 14° SSW 17:30:04 10° S visible
09 Dec -1.0 16:37:29 10° WSW 16:39:55 19° SSW 16:42:21 10° SSE visible
10 Dec -1.3 15:48:51 10° WSW 15:51:37 24° SSW 15:54:22 10° SSE visible
11 Dec -0.3 16:38:20 10° SW 16:39:13 11° SW 16:40:05 10° SSW visible
12 Dec -0.6 15:48:58 10° WSW 15:50:57 15° SSW 15:52:55 10° S visible
